,

(GMT )
Teruel

Tiempo Historia de LETL - Julio, 2017

Change the Weather History Date:

Lunes, Julio 17, 2017

  Actual Average Record
Temperature  
Temperatura media 73 ° F -  
Temperatura máxima 86 ° F - - ()
Temperatura mínima 60 ° F - - ()
Cooling Degree Days 8    
Growing Degree Days 23 (Base 50)    
Moisture  
Punto de rocío 51 ° F    
Average Humidity 48    
Maximum Humidity 68    
Minimum Humidity 27    
Precipitación  
Precipitación 0.00 pul - - ()
Presión al nivel del mar  
Presión al nivel del mar 30.19 pul    
Viento  
Velocidad del viento 10 mph ()    
Velocidad máxima del viento 18 mph    
Max Gust Speed -    
Visibilidad 6.2 Millas    
Eventos      
T = Trace of Precipitation, MM = Missing Value Source: Averaged Metar Reports

Daily Weather History Graph

Daily Weather History Graph

Search for Another Location

Airport or City:

Trip Planner

Search our weather history database for the weather conditions in past years. The results will help you decide how hot, cold, wet, or windy it might be!

Date:

Astronomía

Jul. 17, 2017 Salida Puesta
Hora real 6:49 AM CEST 9:32 PM CEST
Crepúsculo civil 6:17 AM CEST 10:04 PM CEST
Crepúsculo náutico 5:37 AM CEST 10:44 PM CEST
Crepúsculo astronómico 4:51 AM CEST 11:29 PM CEST
Luna 1:51 AM CEST (7/17) 3:06 PM CEST (7/17)
Horas de luz 15h 47m
Horas de luz
14h 43m
Cuarto menguante, 43% of the Moon is Illuminated
Jul 17
Cuarto menguante
Jul 23
Nueva
Jul 30
Cuarto creciente
Ago 7
Luna llena
Ago 15
Cuarto menguante

Hourly Weather History & Observations

Hora (CEST) Temp. Índice de calor Punto de rocío Humedad Presión Visibilidad Wind Dir Velocidad del viento Velocidad de ráfagas Precip Eventos Condiciones
12:00 AM 69.8 ° F - 53.6 ° F 56% 30.21 pul 6.2 mi SE 9.2 mph - N/A   Desconocido
12:30 AM 68.0 ° F - 53.6 ° F 60% 30.24 pul 6.2 mi SE 10.4 mph - N/A   Desconocido
1:00 AM 68.0 ° F - 53.6 ° F 60% 30.24 pul 6.2 mi SE 8.1 mph - N/A   Desconocido
1:30 AM 66.2 ° F - 51.8 ° F 60% 30.24 pul 6.2 mi SE 9.2 mph - N/A   Desconocido
2:00 AM 66.2 ° F - 51.8 ° F 60% 30.21 pul 6.2 mi SE 9.2 mph - N/A   Desconocido
4:00 AM 62.6 ° F - 50.0 ° F 63% 30.21 pul 6.2 mi SE 10.4 mph - N/A   Desconocido
5:00 AM 60.8 ° F - 50.0 ° F 68% 30.21 pul 6.2 mi SE 8.1 mph - N/A   Desconocido
5:30 AM 60.8 ° F - 50.0 ° F 68% 30.21 pul 6.2 mi ESE 6.9 mph - N/A   Desconocido
6:30 AM 60.8 ° F - 50.0 ° F 68% 30.21 pul 6.2 mi SE 6.9 mph - N/A   Desconocido
7:00 AM 60.8 ° F - 50.0 ° F 68% 30.21 pul 6.2 mi SE 6.9 mph - N/A   Desconocido
8:30 AM 66.2 ° F - 50.0 ° F 56% 30.21 pul - SE 10.4 mph - N/A   Despejado
9:00 AM 68.0 ° F - 48.2 ° F 49% 30.21 pul - SE 10.4 mph - N/A   Despejado
10:00 AM 73.4 ° F - 46.4 ° F 38% 30.21 pul - SE 11.5 mph - N/A   Despejado
11:00 AM 75.2 ° F - 46.4 ° F 36% 30.21 pul - SE 15.0 mph - N/A   Despejado
11:30 AM 77.0 ° F - 46.4 ° F 34% 30.21 pul 6.2 mi SSE 15.0 mph - N/A   Desconocido
12:00 PM 78.8 ° F - 46.4 ° F 32% 30.18 pul - SE 13.8 mph - N/A   Despejado
12:30 PM 80.6 ° F - 48.2 ° F 32% 30.18 pul - SE 16.1 mph - N/A   Despejado
1:00 PM 80.6 ° F - 48.2 ° F 32% 30.18 pul - SSE 16.1 mph - N/A   Despejado
2:30 PM 84.2 ° F - 48.2 ° F 29% 30.15 pul - Sur 16.1 mph - N/A   Despejado
3:00 PM 86.0 ° F - 48.2 ° F 27% 30.15 pul - Sur 17.3 mph - N/A   Despejado
3:30 PM 86.0 ° F - 48.2 ° F 27% 30.15 pul - SSE 13.8 mph - N/A   Despejado
4:00 PM 86.0 ° F - 50.0 ° F 29% 30.15 pul - Sur 17.3 mph - N/A   Despejado
7:30 PM 80.6 ° F 80.8 ° F 57.2 ° F 45% 30.09 pul - ESE 17.3 mph - N/A   Despejado
9:00 PM 77.0 ° F - 59.0 ° F 54% 30.12 pul 6.2 mi SE 18.4 mph - N/A   Desconocido
9:30 PM 75.2 ° F - 59.0 ° F 57% 30.15 pul - SE 17.3 mph - N/A   Despejado